Flag for U.S.A. Weather past 2 weeks in Sunnyvale, California, U.S.A.

Now
65 °F

Clear.


Feels Like: 65 °F
Forecast: 55 / 84 °F
Wind: No wind

Location: Moffett Field

Current Time: Oct 1, 2014 at 11:41:50 PM

Latest Report: Oct 1, 2014 at 10:56 PM


Visibility: 10 mi

Pressure: 29.96 "Hg

Humidity: 45%

Dew point: 43 °F

Location of SunnyvaleLocation

Historic Weather in Sunnyvale — Graph

°F

Sunnyvale temperature yesterday

Maximum temperature yesterday: 75 °F (at 3:56 PM)
Minimum temperature yesterday: 57 °F (at 5:56 AM)
Average temperature yesterday: 65 °F

Past Weeks' High & Low Weather Summary

 TemperatureHumidityPressure
High86 °F (Oct 1, 2:56 PM)100% (Sep 25, 2:04 AM)30.07 "Hg (Sep 25, 2:04 AM)
Low57 °F (Sep 28, 4:56 AM)18% (Oct 1, 2:56 PM)29.74 "Hg (Sep 17, 5:56 PM)
Average68 °F73%29.93 "Hg
* Reported Sep 16 9:56 PM — Oct 1 9:56 PM, Sunnyvale, Weather by CustomWeather, © 2014

Note: Actual official high and low records may vary slightly from our data, if they occured in-between our weather recording intervals... More about our weather records

Advertising

Sunnyvale weather history for previous 24 hours

 ConditionsComfort  
Time TempWeatherWind HumidityBarometerVisibility
9:56 PM
Oct 1
68 °FClear.No wind39%29.94 "Hg10 mi
8:56 PM72 °FClear.5 mph33%29.92 "Hg10 mi
7:56 PM72 °FClear.6 mph41%29.90 "Hg10 mi
6:56 PM73 °FSunny.7 mph44%29.89 "Hg10 mi
5:56 PM77 °FSunny.14 mph45%29.87 "Hg10 mi
4:56 PM84 °FSunny.8 mph19%29.86 "Hg10 mi
3:56 PM86 °FSunny.8 mph19%29.87 "Hg10 mi
2:56 PM86 °FSunny.8 mph18%29.87 "Hg10 mi
1:56 PM84 °FSunny.8 mph19%29.88 "Hg10 mi
12:56 PM82 °FSunny.8 mph21%29.90 "Hg10 mi
11:56 AM79 °FSunny.7 mph24%29.92 "Hg10 mi
10:56 AM76 °FSunny.3 mph27%29.93 "Hg10 mi
9:56 AM74 °FSunny.No wind29%29.93 "Hg10 mi
8:56 AM69 °FSunny.No wind51%29.93 "Hg10 mi
7:56 AM60 °FClear.No wind83%29.91 "Hg10 mi
6:56 AM60 °FClear.No wind90%29.90 "Hg10 mi
5:56 AM59 °FClear.No wind84%29.88 "Hg10 mi
4:56 AM58 °FClear.No wind90%29.87 "Hg10 mi
3:56 AM57 °FClear.No wind100%29.87 "Hg10 mi
2:56 AM59 °FClear.No wind90%29.87 "Hg10 mi
1:56 AM60 °FClear.3 mph96%29.87 "Hg10 mi
12:56 AM62 °FClear.No wind83%29.86 "Hg10 mi
11:56 PM
Sep 30
64 °FClear.No wind87%29.86 "Hg10 mi
Weather by CustomWeather, © 2014

See weather overviewHow to use our weather pages